Showing default

COSMOS 2246, 22647

Orbit data source: Space-Track

COSMOS 2246, 22647 is a payload satellite owned by VKS (CIS) in LEO that was launched on Tue, 11 May 1993 UTC via a TSIKLON-3 launch vehicle from the Plesetsk Missile And Space Complex (PKMTR). Payload-class satellites include a variety of spacecraft equipped with specific instruments for various scientific and technological missions. These include communications satellites like Starlink; space stations such as the ISS; scientific satellites like the Hubble; Earth observation satellites from companies like Planet Labs, Umbra, and HawkEye 360; GPS; miniature CubeSats for education and research; and military/defense satellites.

Loading next visibility...
Identifier
22647, 1993-030B
Orbit
LEO
Country
Flag of CISCIS
Related business
Manufacturer
NPO PM
Mission
Defense Communications
Bus & Motor
STRELA-3, Unknown motor
Mass
225 kg wet, 225 kg dry
Launch date (UTC)
1993-05-11 (33 years ago)
Launch vehicle
TSIKLON-3
Launch site
Plesetsk Missile And Space Complex (PKMTR)
Object type
Payload
Rocket body
Debris
Shape & HBR
Cyl, 0.8 m
Radar Cross Section
1.257 m², Medium (>0.1 m² and < 1m²)

Expand to show TLE details & history
Last TLE update: 16 hours ago

TLE from 16 hours ago
0 COSMOS 2246
1 22647U 93030B   26124.36756445  .00000032  00000-0  11700-3 0  9998
2 22647  82.5874 344.8275 0010349  18.5347 341.6120 12.63635330520999
Epoch: 2026-05-04T08:49Z
TLE epoch observation values (Epoch: 2026-05-04T08:49:17.568Z)
Latitude
-0.00001°
Longitude
-9.75348°
Altitude
1,403.06 km
Speed
7.162 km/s
True Right ascension
22h 59m 18s
True Declination
0° 00' 00"
Sunlit
Object was in daylight at epoch
Visualization orbit readout
Latitude
Unknown
Longitude
Unknown
Altitude
Unknown
Speed
Unknown
Apparent Right ascension
Unknown
Apparent Declination
Unknown
Sunlit
N/A
Visualization observer readout
Local Sidereal Time
09:02:40
Azimuth
Unknown
Elevation
Unknown
Doppler factor
Unknown
Orbital elements
Apogee altitude
1,413.349 km
Perigee altitude
1,397.239 km
Semi-major axis
7,783.431 km
Eccentricity
0.00103
Inclination
82.5874°
RAAN
344.8275°
Arg. of periapsis
18.5347°
True anomaly
341.57454°
Mean anomaly
341.612°
Eccentric anomaly
341.59328°
Mean motion
3.16072 °/min
Orbital period
113.9 mins
BSTAR
0.000117
Loading maneuver chart data...
Computing Atmospheric mass density...
Loading historical data...
Loading historical data...
Loading historical data...
Loading historical data...
Loading historical data...
Loading historical data...
Loading historical data...

Documentation

Showing up to 5 results
|